TimeCDT,TemperatureF,Dew PointF,Humidity,Sea Level PressureIn,VisibilityMPH,Wind Direction,Wind SpeedMPH,Gust SpeedMPH,PrecipitationIn,Events,Conditions,WindDirDegrees,DateUTC
12:15 AM,37.4,26.6,65,29.73,10.0,Calm,Calm,-,N/A,,Partly Cloudy,0,2013-10-27 05:15:00
12:35 AM,41.0,26.6,57,29.71,10.0,WSW,12.7,19.6,N/A,,Partly Cloudy,240,2013-10-27 05:35:00
12:55 AM,41.0,28.4,61,29.70,10.0,WSW,16.1,26.5,N/A,,Scattered Clouds,240,2013-10-27 05:55:00
1:15 AM,41.0,28.4,61,29.69,10.0,WSW,11.5,20.7,N/A,,Mostly Cloudy,250,2013-10-27 06:15:00
1:35 AM,41.0,26.6,57,29.68,10.0,West,12.7,24.2,N/A,,Scattered Clouds,260,2013-10-27 06:35:00
1:55 AM,42.8,28.4,57,29.68,10.0,West,12.7,23.0,N/A,,Mostly Cloudy,270,2013-10-27 06:55:00
2:15 AM,42.8,28.4,57,29.68,10.0,WSW,15.0,24.2,N/A,,Mostly Cloudy,250,2013-10-27 07:15:00
2:35 AM,41.0,28.4,61,29.68,10.0,West,12.7,18.4,N/A,,Scattered Clouds,260,2013-10-27 07:35:00
2:55 AM,41.0,28.4,61,29.68,10.0,WNW,11.5,16.1,N/A,,Partly Cloudy,290,2013-10-27 07:55:00
3:15 AM,41.0,28.4,61,29.69,10.0,WNW,15.0,20.7,N/A,,Scattered Clouds,290,2013-10-27 08:15:00
3:35 AM,41.0,28.4,61,29.69,10.0,WNW,9.2,18.4,N/A,,Scattered Clouds,300,2013-10-27 08:35:00
3:55 AM,41.0,28.4,61,29.70,10.0,NW,11.5,17.3,N/A,,Partly Cloudy,310,2013-10-27 08:55:00
4:15 AM,41.0,28.4,61,29.71,10.0,NW,11.5,16.1,N/A,,Partly Cloudy,310,2013-10-27 09:15:00
4:35 AM,41.0,28.4,61,29.71,10.0,NW,13.8,19.6,N/A,,Clear,320,2013-10-27 09:35:00
4:55 AM,41.0,28.4,61,29.72,10.0,NW,12.7,-,N/A,,Clear,320,2013-10-27 09:55:00
5:15 AM,41.0,28.4,61,29.73,10.0,NW,12.7,-,N/A,,Partly Cloudy,320,2013-10-27 10:15:00
5:35 AM,37.4,26.6,65,29.79,10.0,NNW,16.1,21.9,N/A,,Scattered Clouds,330,2013-10-27 10:35:00
5:55 AM,37.4,26.6,65,29.80,10.0,NNW,13.8,-,N/A,,Mostly Cloudy,330,2013-10-27 10:55:00
6:15 AM,35.6,26.6,70,29.81,10.0,NNW,15.0,-,N/A,,Overcast,330,2013-10-27 11:15:00
6:35 AM,35.6,28.4,75,29.82,10.0,NNW,15.0,20.7,N/A,,Overcast,330,2013-10-27 11:35:00
6:55 AM,35.6,28.4,75,29.83,10.0,NNW,16.1,24.2,N/A,,Scattered Clouds,340,2013-10-27 11:55:00
7:15 AM,35.6,28.4,75,29.84,10.0,NNW,15.0,20.7,N/A,,Partly Cloudy,340,2013-10-27 12:15:00
7:35 AM,33.8,30.2,87,29.86,10.0,NNW,12.7,18.4,N/A,,Clear,330,2013-10-27 12:35:00
7:55 AM,33.8,32.0,93,29.87,10.0,North,13.8,-,N/A,,Clear,350,2013-10-27 12:55:00
8:15 AM,35.6,32.0,87,29.89,10.0,NNW,11.5,-,N/A,,Clear,340,2013-10-27 13:15:00
8:35 AM,35.6,30.2,81,29.91,10.0,North,16.1,23.0,N/A,,Clear,350,2013-10-27 13:35:00
8:55 AM,37.4,30.2,75,29.93,10.0,North,18.4,23.0,N/A,,Partly Cloudy,360,2013-10-27 13:55:00
9:15 AM,35.6,30.2,81,29.94,10.0,North,17.3,20.7,N/A,,Scattered Clouds,360,2013-10-27 14:15:00
9:35 AM,37.4,32.0,81,29.96,10.0,North,17.3,-,N/A,,Mostly Cloudy,350,2013-10-27 14:35:00
9:55 AM,37.4,30.2,75,29.97,10.0,North,16.1,25.3,N/A,,Overcast,360,2013-10-27 14:55:00
10:15 AM,37.4,28.4,70,29.99,10.0,North,23.0,28.8,N/A,,Overcast,360,2013-10-27 15:15:00
10:35 AM,39.2,28.4,65,29.99,10.0,North,24.2,34.5,N/A,,Mostly Cloudy,10,2013-10-27 15:35:00
10:55 AM,37.4,26.6,65,30.01,10.0,North,23.0,33.4,N/A,,Mostly Cloudy,10,2013-10-27 15:55:00
11:15 AM,39.2,28.4,65,30.03,10.0,North,24.2,31.1,N/A,,Mostly Cloudy,10,2013-10-27 16:15:00
11:35 AM,39.2,26.6,61,30.04,10.0,NNE,19.6,29.9,N/A,,Mostly Cloudy,20,2013-10-27 16:35:00
11:55 AM,39.2,26.6,61,30.05,10.0,North,21.9,28.8,N/A,,Mostly Cloudy,10,2013-10-27 16:55:00
12:15 PM,39.2,24.8,56,30.06,10.0,North,26.5,31.1,N/A,,Overcast,10,2013-10-27 17:15:00
12:35 PM,39.2,24.8,56,30.07,10.0,North,21.9,29.9,N/A,,Overcast,10,2013-10-27 17:35:00
12:55 PM,39.2,24.8,56,30.08,10.0,NNE,25.3,34.5,N/A,,Overcast,30,2013-10-27 17:55:00
1:15 PM,39.2,23.0,52,30.09,10.0,NNE,18.4,32.2,N/A,,Overcast,30,2013-10-27 18:15:00
1:35 PM,39.2,23.0,52,30.10,10.0,NNE,20.7,34.5,N/A,,Overcast,20,2013-10-27 18:35:00
1:55 PM,39.2,23.0,52,30.11,10.0,North,27.6,33.4,N/A,,Overcast,10,2013-10-27 18:55:00
2:15 PM,37.4,24.8,60,30.12,10.0,North,25.3,31.1,N/A,,Overcast,10,2013-10-27 19:15:00
2:35 PM,37.4,24.8,60,30.13,10.0,NNE,24.2,33.4,N/A,,Overcast,20,2013-10-27 19:35:00
2:55 PM,35.6,24.8,65,30.15,10.0,North,26.5,33.4,N/A,,Overcast,10,2013-10-27 19:55:00
3:15 PM,33.8,23.0,65,30.17,10.0,North,25.3,33.4,N/A,,Overcast,10,2013-10-27 20:15:00
3:35 PM,32.0,23.0,69,30.19,10.0,North,24.2,31.1,N/A,,Overcast,10,2013-10-27 20:35:00
3:55 PM,32.0,23.0,69,30.20,10.0,North,26.5,35.7,N/A,,Overcast,10,2013-10-27 20:55:00
4:15 PM,32.0,21.2,64,30.22,10.0,North,23.0,31.1,N/A,,Overcast,10,2013-10-27 21:15:00
4:35 PM,30.2,19.4,64,30.23,10.0,North,21.9,29.9,N/A,,Mostly Cloudy,10,2013-10-27 21:35:00
4:55 PM,28.4,19.4,69,30.24,10.0,NNE,17.3,26.5,N/A,,Partly Cloudy,20,2013-10-27 21:55:00
5:15 PM,28.4,19.4,69,30.26,10.0,NNE,19.6,27.6,N/A,,Clear,20,2013-10-27 22:15:00
5:35 PM,28.4,17.6,64,30.27,10.0,NNE,16.1,25.3,N/A,,Clear,20,2013-10-27 22:35:00
5:55 PM,26.6,17.6,69,30.29,10.0,North,16.1,26.5,N/A,,Clear,10,2013-10-27 22:55:00
6:15 PM,26.6,17.6,69,30.30,10.0,North,16.1,-,N/A,,Partly Cloudy,360,2013-10-27 23:15:00
6:35 PM,26.6,17.6,69,30.32,10.0,North,13.8,20.7,N/A,,Partly Cloudy,360,2013-10-27 23:35:00
6:55 PM,24.8,15.8,69,30.33,10.0,North,15.0,19.6,N/A,,Partly Cloudy,360,2013-10-27 23:55:00
7:15 PM,24.8,15.8,69,30.35,10.0,North,15.0,-,N/A,,Partly Cloudy,350,2013-10-28 00:15:00
7:35 PM,24.8,15.8,69,30.36,10.0,North,16.1,19.6,N/A,,Scattered Clouds,360,2013-10-28 00:35:00
7:55 PM,24.8,15.8,69,30.37,10.0,North,13.8,-,N/A,,Scattered Clouds,360,2013-10-28 00:55:00
8:15 PM,24.8,17.6,74,30.38,10.0,North,13.8,-,N/A,,Mostly Cloudy,360,2013-10-28 01:15:00
8:35 PM,24.8,17.6,74,30.39,10.0,North,12.7,-,N/A,,Mostly Cloudy,10,2013-10-28 01:35:00
8:55 PM,24.8,17.6,74,30.40,10.0,North,11.5,-,N/A,,Mostly Cloudy,360,2013-10-28 01:55:00
9:15 PM,24.8,17.6,74,30.41,10.0,North,12.7,-,N/A,,Overcast,360,2013-10-28 02:15:00
9:35 PM,24.8,17.6,74,30.42,10.0,North,12.7,17.3,N/A,,Overcast,10,2013-10-28 02:35:00
9:55 PM,24.8,17.6,74,30.44,10.0,NNE,11.5,-,N/A,,Overcast,20,2013-10-28 02:55:00
10:15 PM,24.8,15.8,69,30.45,10.0,NNE,12.7,16.1,N/A,,Overcast,20,2013-10-28 03:15:00
10:35 PM,24.8,17.6,74,30.45,10.0,North,11.5,-,N/A,,Overcast,10,2013-10-28 03:35:00
10:55 PM,24.8,15.8,69,30.46,10.0,NNE,11.5,16.1,N/A,,Overcast,20,2013-10-28 03:55:00
11:15 PM,23.0,15.8,74,30.47,10.0,NNE,10.4,-,N/A,,Overcast,20,2013-10-28 04:15:00
11:35 PM,23.0,15.8,74,30.48,10.0,NNE,9.2,-,N/A,,Overcast,20,2013-10-28 04:35:00
11:55 PM,23.0,15.8,74,30.48,10.0,NNE,9.2,-,N/A,,Overcast,20,2013-10-28 04:55:00